[[{"header":{"parameterUnit":"m.s-1","parameterCategory":2,"la1":30.2991,"la2":30.254,"lo1":-89.0895,"lo2":-89.0444,"dy":0.0017,"dx":0.0017,"nx":28,"ny":28,"refTime":"2024-05-08T03:00:00:Z","depth":"0","parameterNumber":2,"parameterNumberName":"U-component_of_CURRENTS"},"data":[0,0,0,0,0,0,0,0,0,0,0,0,0,0,0,0,0,0,0,0,0,0,0,0,0,0,0,0,0,0,0,0,0,0,0,0,0,0,0,0,0,0,0,0,0,0,0,0,0,0,0,0,0,0,0,0,0,0,-0.2519,-0.2519,0,-0.2534,-0.2534,-0.2534,-0.2494,-0.2493,-0.2492,-0.2492,-0.2436,-0.2436,-0.2435,0,0,0,0,0,0,0,0,0,0,0,0,0,-0.2417,-0.2419,-0.2519,-0.2519,-0.252,-0.2534,-0.2534,-0.2533,-0.2494,-0.2493,-0.2492,-0.2491,-0.2437,-0.2436,-0.2435,0,0,0,0,0,0,0,0,0,0,0,0,0,-0.2446,-0.242,-0.2519,-0.2505,-0.2504,-0.2534,-0.2534,-0.2533,-0.2494,-0.2493,-0.2492,-0.2491,-0.2437,-0.2436,-0.2435,-0.2455,0,0,-0.2432,-0.2432,0,0,0,0,0,0,0,0,-0.2444,-0.2449,-0.2506,-0.2506,-0.2505,-0.2514,-0.2478,-0.2505,-0.2495,-0.2494,-0.2492,-0.249,-0.246,-0.2457,-0.2458,-0.2452,-0.245,-0.2432,-0.2431,-0.2431,-0.2431,0,0,0,0,0,0,0,-0.2443,-0.2448,-0.2521,-0.2507,-0.2506,-0.2485,-0.2487,-0.2483,-0.2479,-0.2494,-0.2492,-0.2501,-0.2458,-0.2459,-0.2456,-0.2449,-0.2432,-0.2431,-0.243,-0.243,-0.2467,-0.2469,0,0,0,0,0,0,-0.2453,-0.2447,-0.252,-0.2521,-0.2475,-0.2488,-0.2491,-0.2509,-0.2481,-0.2477,-0.2502,-0.2499,-0.2461,-0.2457,-0.2454,-0.2481,-0.2431,-0.243,-0.2429,-0.2466,-0.2467,-0.2469,0,0,0,0,0,0,-0.2451,-0.246,-0.252,-0.2487,-0.2493,-0.2492,-0.2513,-0.251,-0.2508,-0.2488,-0.2482,-0.2501,-0.246,-0.2455,-0.2453,-0.2478,-0.2429,-0.2429,-0.2464,-0.2466,-0.2468,-0.2531,0,0,0,0,0,0,-0.2448,-0.2459,-0.247,-0.2488,-0.2496,-0.254,-0.2514,-0.2512,-0.2517,-0.2513,-0.2486,-0.248,-0.2459,-0.2455,-0.2452,-0.2476,-0.2428,-0.2462,-0.2465,-0.2468,-0.2527,-0.2536,-0.2543,0,0,0,0,0,-0.2444,-0.2468,-0.247,-0.2479,-0.2513,-0.2541,-0.2543,-0.2533,-0.2519,-0.2524,-0.2507,-0.2481,-0.2472,-0.2455,-0.2452,-0.2476,-0.246,-0.2464,-0.2467,-0.2524,-0.2534,-0.2543,0,0,0,0,0,0,-0.2421,-0.2468,-0.247,-0.2504,-0.2522,-0.2536,-0.2543,-0.2539,-0.2532,-0.2523,-0.2496,-0.249,-0.25,-0.2483,-0.2465,-0.2497,-0.2464,-0.2467,-0.2509,-0.2518,-0.2525,-0.2526,-0.2427,0,0,0,0,0,-0.2426,-0.2459,-0.2491,-0.2515,-0.2528,-0.2536,-0.2544,-0.2542,-0.2544,-0.2538,-0.2522,-0.2511,-0.2515,-0.251,-0.2506,-0.2521,-0.2494,-0.2537,-0.2544,-0.2551,-0.2551,-0.2542,-0.2548,-0.2481,-0.2481,-0.2481,0,0,-0.2421,-0.2453,-0.2467,-0.2512,-0.2524,-0.2554,-0.2536,-0.2556,-0.2575,-0.2535,-0.2544,-0.2534,-0.2526,-0.2543,-0.2546,-0.2528,-0.2557,-0.2555,-0.2561,-0.2557,-0.2546,-0.2552,-0.2558,-0.2483,-0.2483,-0.2482,0,0,-0.2434,-0.2459,-0.2491,-0.2517,-0.255,-0.2563,-0.2572,-0.2589,-0.259,-0.2607,-0.2588,-0.2594,-0.259,-0.2594,-0.2596,-0.2647,-0.2598,-0.2645,-0.2682,-0.2674,-0.2679,-0.2683,-0.2654,-0.2655,-0.2648,-0.2648,-0.2648,0,-0.242,-0.2471,-0.25,-0.254,-0.2562,-0.2571,-0.2602,-0.2617,-0.2627,-0.2633,-0.2616,-0.2627,-0.262,-0.265,-0.2669,-0.2664,-0.2638,-0.2645,-0.2682,-0.2686,-0.2689,-0.2658,-0.2658,-0.2652,-0.2651,-0.2651,-0.2651,0,-0.2458,-0.2498,-0.252,-0.2577,-0.2606,-0.2632,-0.2667,-0.2682,-0.2684,-0.2692,-0.2712,-0.2705,-0.2706,-0.2718,-0.2709,-0.2737,-0.2704,-0.2692,-0.2655,-0.2699,-0.2664,-0.2663,-0.2657,-0.2656,-0.2655,-0.2654,0,0,-0.2418,-0.2524,-0.2531,-0.2561,-0.2626,-0.2649,-0.2698,-0.2736,-0.2757,-0.2764,-0.2786,-0.2807,-0.2789,-0.2791,-0.2781,-0.2783,-0.2789,-0.2748,-0.2746,-0.2712,-0.2748,-0.2663,-0.2653,-0.2775,-0.2776,-0.2776,-0.2713,0,-0.2429,-0.2514,-0.2563,-0.2621,-0.2662,-0.2698,-0.2742,-0.2779,-0.28,-0.2822,-0.2827,-0.2839,-0.2822,-0.2819,-0.2822,-0.2799,-0.2789,-0.2805,-0.2716,-0.2713,-0.2626,-0.2651,-0.2537,-0.2466,-0.2711,-0.2711,-0.2711,0,-0.2441,-0.25,-0.2577,-0.2651,-0.2669,-0.2703,-0.2764,-0.2798,-0.2848,-0.2864,-0.2879,-0.2876,-0.2889,-0.2863,-0.2834,-0.2839,-0.2797,-0.2775,-0.2771,-0.2667,-0.2627,-0.2463,-0.2455,-0.2437,-0.2709,-0.2709,-0.2709,0,-0.2409,-0.2496,-0.2557,-0.2587,-0.2683,-0.2709,-0.2739,-0.2803,-0.2823,-0.2877,-0.2891,-0.2907,-0.2894,-0.2869,-0.2819,-0.2823,-0.277,-0.2769,-0.2651,-0.2644,-0.2517,-0.2498,-0.2473,-0.2741,-0.2741,-0.2741,-0.2741,0,-0.2411,-0.2444,-0.2542,-0.2582,-0.2617,-0.2686,-0.2719,-0.2764,-0.2816,-0.283,-0.2888,-0.2892,-0.2892,-0.2862,-0.2825,-0.2722,-0.2766,-0.2653,-0.2624,-0.2536,-0.252,-0.2473,-0.2503,-0.2738,-0.2739,-0.2739,-0.274,0,-0.2371,-0.2448,-0.2501,-0.2596,-0.2614,-0.263,-0.268,-0.2693,-0.2767,-0.2788,-0.28,-0.2859,-0.2821,-0.2802,-0.2753,-0.2701,-0.2587,-0.2587,-0.2473,-0.2432,-0.2304,-0.2342,-0.2284,-0.222,-0.2451,-0.2449,-0.2447,0,-0.2353,-0.2397,-0.2487,-0.2471,-0.2504,-0.2534,-0.2549,-0.2652,-0.2668,-0.2752,-0.2749,-0.2752,-0.2723,-0.2633,-0.2551,-0.2456,-0.2471,-0.2306,-0.2304,-0.2277,-0.2299,-0.2334,-0.2288,-0.2161,-0.2156,-0.2153,-0.215,0,-0.2277,-0.2321,-0.233,-0.2342,-0.2353,-0.2373,-0.2404,-0.2444,-0.2553,-0.2588,-0.2604,-0.2595,-0.2538,-0.2407,-0.2306,-0.2236,-0.2255,-0.223,-0.2236,-0.2095,-0.2099,-0.2028,-0.2222,-0.2119,-0.2122,-0.2125,-0.2126,-0.2128,-0.2138,-0.2129,-0.2135,-0.2121,-0.2126,-0.2142,-0.2098,-0.2194,-0.2225,-0.2252,-0.2376,-0.2328,-0.2296,-0.2134,-0.2074,-0.1934,-0.2007,-0.1877,-0.193,-0.1973,-0.1897,-0.2013,-0.1861,-0.1863,-0.1864,-0.1865,-0.1866,0,-0.192,-0.1928,-0.1897,-0.1854,-0.1776,-0.1878,-0.1913,-0.1844,-0.1841,-0.2,-0.1996,-0.1994,-0.1888,-0.1875,-0.1765,-0.1676,-0.1646,-0.1639,-0.1676,-0.1646,-0.1757,-0.1728,-0.1499,-0.1499,-0.1499,-0.1499,-0.1499,-0.1499,-0.1792,-0.1694,-0.1711,-0.1502,-0.1465,-0.1349,-0.1343,-0.1319,-0.1363,-0.1394,-0.1473,-0.1554,-0.1639,-0.1783,-0.1677,-0.1585,-0.1566,-0.1502,-0.1549,-0.1652,-0.1679,-0.1705,-0.1684,-0.145,-0.145,-0.136,-0.1359,-0.1359]},{"header":{"parameterUnit":"m.s-1","parameterCategory":2,"la1":30.2991,"la2":30.254,"lo1":-89.0895,"lo2":-89.0444,"dy":0.0017,"dx":0.0017,"nx":28,"ny":28,"refTime":"2024-05-08T03:00:00:Z","depth":"0","parameterNumber":3,"parameterNumberName":"V-component_of_CURRENTS"},"data":[0,0,0,0,0,0,0,0,0,0,0,0,0,0,0,0,0,0,0,0,0,0,0,0,0,0,0,0,0,0,0,0,0,0,0,0,0,0,0,0,0,0,0,0,0,0,0,0,0,0,0,0,0,0,0,0,0,0,-0.0117,-0.0116,0,-0.003,-0.0029,-0.0028,0.0038,0.0039,0.0039,0.004,0.017,0.0173,0.0176,0,0,0,0,0,0,0,0,0,0,0,0,0,-0.0171,-0.0171,-0.0117,-0.0116,-0.0115,-0.003,-0.0029,-0.0027,0.0038,0.0039,0.0039,0.004,0.0169,0.0173,0.0176,0,0,0,0,0,0,0,0,0,0,0,0,0,-0.0121,-0.017,-0.0117,-0.0073,-0.0068,-0.003,-0.0029,-0.0027,0.0038,0.0039,0.004,0.004,0.0168,0.0172,0.0177,0.019,0,0,0.0191,0.0192,0,0,0,0,0,0,0,0,-0.0124,-0.0119,-0.008,-0.0076,-0.007,-0.0007,0.0,0.0047,0.0038,-0.0001,0.004,0.0041,0.0114,0.0123,0.0138,0.0196,0.0201,0.0191,0.0194,0.0196,0.0197,0,0,0,0,0,0,0,-0.0128,-0.0122,-0.0081,-0.0079,-0.0073,-0.0038,-0.0031,0.001,0.0053,0.0002,0.0007,0.0015,0.0117,0.0134,0.0142,0.0203,0.0191,0.0195,0.0198,0.0199,0.0305,0.0305,0,0,0,0,0,0,-0.0145,-0.0126,-0.0084,-0.0079,-0.0097,-0.0038,-0.003,-0.0027,0.0052,0.0064,0.0014,0.0017,0.0126,0.0137,0.0147,0.0181,0.0196,0.02,0.0202,0.0305,0.0305,0.0305,0,0,0,0,0,0,-0.0146,-0.0142,-0.0087,-0.0101,-0.0091,-0.0039,-0.0036,-0.0026,-0.0008,0.006,0.0073,0.0022,0.0127,0.0141,0.0183,0.0186,0.0202,0.0206,0.0305,0.0305,0.0305,0.0241,0,0,0,0,0,0,-0.0148,-0.0143,-0.015,-0.0102,-0.0091,-0.0073,-0.0036,-0.0025,-0.0005,0.0001,0.007,0.0083,0.0128,0.0175,0.0187,0.0193,0.0209,0.0305,0.0305,0.0305,0.0243,0.0239,0.0236,0,0,0,0,0,-0.015,-0.0166,-0.0151,-0.0146,-0.0102,-0.0074,-0.0065,-0.0024,-0.0005,-0.0004,0.0047,0.0081,0.0185,0.0179,0.0193,0.02,0.0305,0.0305,0.0305,0.0245,0.024,0.0236,0,0,0,0,0,0,-0.0194,-0.0159,-0.0142,-0.0146,-0.0116,-0.0063,-0.006,-0.0031,0.001,0.0015,0.0081,0.0097,0.0132,0.0174,0.0166,0.0232,0.0252,0.0255,0.0201,0.0197,0.0193,0.018,0.0213,0,0,0,0,0,-0.0208,-0.0211,-0.0167,-0.0172,-0.016,-0.0112,-0.0096,-0.0068,-0.0025,-0.0007,0.0043,0.0097,0.0143,0.0175,0.0216,0.0253,0.0303,0.0268,0.0265,0.0261,0.026,0.0346,0.035,0.0306,0.0306,0.0306,0,0,-0.0227,-0.0209,-0.021,-0.0182,-0.0155,-0.0144,-0.0101,-0.0084,-0.0068,0.0001,0.0033,0.0079,0.0147,0.0186,0.0208,0.0225,0.0297,0.0261,0.0258,0.0259,0.0346,0.0351,0.0355,0.0306,0.0306,0.0306,0,0,-0.0267,-0.025,-0.0263,-0.024,-0.0208,-0.0175,-0.0174,-0.0125,-0.0097,-0.0063,-0.0009,0.0043,0.0106,0.0166,0.0202,0.0205,0.0265,0.0214,0.0197,0.028,0.0284,0.0288,0.0342,0.0352,0.0223,0.0223,0.0223,0,-0.0293,-0.0296,-0.0262,-0.0263,-0.0249,-0.0194,-0.0197,-0.0162,-0.0104,-0.0077,-0.0064,0.0048,0.0101,0.0173,0.0171,0.0197,0.0242,0.0206,0.0275,0.028,0.0286,0.034,0.0352,0.022,0.022,0.022,0.0221,0,-0.0334,-0.0333,-0.0339,-0.032,-0.0303,-0.0297,-0.0244,-0.022,-0.0182,-0.0136,-0.0071,0.0005,0.0078,0.0102,0.0137,0.0205,0.022,0.025,0.0283,0.0287,0.0343,0.0356,0.0215,0.0216,0.0217,0.0218,0,0,-0.0397,-0.0374,-0.0374,-0.0372,-0.033,-0.0321,-0.0294,-0.0246,-0.0221,-0.0158,-0.0112,-0.0027,0.0021,0.0066,0.0127,0.0199,0.0271,0.0234,0.024,0.0281,0.0434,0.047,0.0488,0.0313,0.0315,0.0317,0.0451,0,-0.0437,-0.0451,-0.0426,-0.0435,-0.0433,-0.0379,-0.0359,-0.0307,-0.025,-0.0194,-0.0095,-0.0036,0.0009,0.0043,0.0123,0.0235,0.0305,0.023,0.043,0.0436,0.0464,0.0505,0.0537,0.0661,0.0464,0.0467,0.0468,0,-0.0483,-0.0481,-0.0494,-0.048,-0.0476,-0.0472,-0.0423,-0.04,-0.0303,-0.0256,-0.0168,-0.0091,0.0024,0.0055,0.0257,0.0206,0.0308,0.0394,0.0402,0.047,0.0498,0.0631,0.0694,0.0852,0.049,0.0488,0.0486,0,-0.0532,-0.0533,-0.0543,-0.0536,-0.0507,-0.0502,-0.049,-0.0415,-0.0394,-0.029,-0.0253,-0.0108,-0.0033,0.0121,0.0295,0.0282,0.0512,0.0525,0.0654,0.0656,0.0741,0.0747,0.0979,0.0667,0.0667,0.0666,0.0666,0,-0.0578,-0.0589,-0.0568,-0.0569,-0.0569,-0.0554,-0.0549,-0.0497,-0.045,-0.0414,-0.0292,-0.0218,-0.0013,0.0143,0.0295,0.052,0.0524,0.0662,0.0706,0.0717,0.0719,0.0907,0.0956,0.0671,0.067,0.0669,0.0668,0,-0.0602,-0.061,-0.0598,-0.0579,-0.0584,-0.0574,-0.0588,-0.0584,-0.0539,-0.0485,-0.0456,-0.0288,-0.0077,0.0129,0.039,0.0522,0.0835,0.0803,0.0784,0.0824,0.1081,0.1123,0.1378,0.1477,0.0972,0.0974,0.0975,0,-0.0618,-0.061,-0.0576,-0.0588,-0.0578,-0.0594,-0.0607,-0.0601,-0.0608,-0.0514,-0.0485,-0.029,-0.0108,0.0276,0.054,0.0826,0.0933,0.1002,0.0992,0.1119,0.12,0.1221,0.1286,0.1073,0.1076,0.1078,0.1079,0,-0.0591,-0.056,-0.054,-0.0562,-0.0582,-0.0609,-0.0645,-0.0662,-0.0653,-0.0604,-0.0479,-0.0327,0.0041,0.0399,0.0742,0.0903,0.1121,0.1048,0.1211,0.1328,0.1339,0.1447,0.0935,0.1096,0.1094,0.1093,0.1092,0.1091,-0.0534,-0.0515,-0.0501,-0.0528,-0.0561,-0.0614,-0.063,-0.0651,-0.0641,-0.0525,-0.0451,-0.0172,0.028,0.0788,0.098,0.1345,0.1291,0.1446,0.1494,0.1509,0.1596,0.11,0.1289,0.1289,0.1288,0.1288,0.1288,0,-0.0472,-0.0484,-0.0498,-0.0531,-0.0572,-0.0596,-0.0648,-0.0638,-0.0584,-0.0425,-0.0276,0.0206,0.0673,0.1086,0.1578,0.1785,0.1831,0.1867,0.1921,0.1973,0.1579,0.1575,0.1798,0.1798,0.1798,0.1798,0.1797,0.1797,-0.0438,-0.0445,-0.0477,-0.0539,-0.0572,-0.0601,-0.0614,-0.0537,-0.0436,-0.0137,0.015,0.0381,0.0885,0.1671,0.2144,0.2182,0.2368,0.2332,0.2438,0.2171,0.2135,0.2101,0.2114,0.2445,0.2446,0.2823,0.2827,0.283]}],[{"header":{"parameterUnit":"m.s-1","parameterCategory":2,"la1":30.2991,"la2":30.254,"lo1":-89.0895,"lo2":-89.0444,"dy":0.0017,"dx":0.0017,"nx":28,"ny":28,"refTime":"2024-05-08T03:00:00:Z","depth":"2","parameterNumber":2,"parameterNumberName":"U-component_of_CURRENTS"},"data":[0,0,0,0,0,0,0,0,0,0,0,0,0,0,0,0,0,0,0,0,0,0,0,0,0,0,0,0,0,0,0,0,0,0,0,0,0,0,0,0,0,0,0,0,0,0,0,0,0,0,0,0,0,0,0,0,0,0,-0.2315,-0.2315,0,-0.2343,-0.2343,-0.2343,-0.2316,-0.2316,-0.2315,-0.2314,-0.2279,-0.2279,-0.2279,0,0,0,0,0,0,0,0,0,0,0,0,0,-0.2227,-0.2228,-0.2315,-0.2316,-0.2316,-0.2343,-0.2343,-0.2343,-0.2317,-0.2316,-0.2315,-0.2314,-0.228,-0.2279,-0.2279,0,0,0,0,0,0,0,0,0,0,0,0,0,-0.2258,-0.2229,-0.2315,-0.2308,-0.2308,-0.2343,-0.2343,-0.2343,-0.2317,-0.2316,-0.2314,-0.2313,-0.228,-0.2279,-0.2279,-0.2301,0,0,-0.2278,-0.2278,0,0,0,0,0,0,0,0,-0.2256,-0.2261,-0.2309,-0.2309,-0.2309,-0.2327,-0.2299,-0.2327,-0.2317,-0.2311,-0.2314,-0.2313,-0.2292,-0.2291,-0.2296,-0.23,-0.2298,-0.2278,-0.2278,-0.2278,-0.2278,0,0,0,0,0,0,0,-0.2254,-0.226,-0.2323,-0.2309,-0.231,-0.23,-0.2303,-0.2304,-0.2304,-0.2311,-0.231,-0.2318,-0.2291,-0.2296,-0.2295,-0.2298,-0.2278,-0.2278,-0.2278,-0.2278,-0.2327,-0.2329,0,0,0,0,0,0,-0.2259,-0.2258,-0.2322,-0.2324,-0.2282,-0.2303,-0.2306,-0.232,-0.2306,-0.2304,-0.2319,-0.2317,-0.2297,-0.2295,-0.2293,-0.2326,-0.2278,-0.2278,-0.2278,-0.2326,-0.2328,-0.2329,0,0,0,0,0,0,-0.2257,-0.2265,-0.2321,-0.2293,-0.23,-0.2306,-0.2322,-0.2322,-0.2325,-0.2313,-0.2309,-0.2322,-0.2296,-0.2294,-0.23,-0.2324,-0.2278,-0.2277,-0.2324,-0.2326,-0.2328,-0.2386,0,0,0,0,0,0,-0.2254,-0.2264,-0.2273,-0.2294,-0.2302,-0.2345,-0.2324,-0.2323,-0.2333,-0.233,-0.2315,-0.2311,-0.2295,-0.2301,-0.23,-0.2322,-0.2277,-0.2322,-0.2325,-0.2328,-0.2382,-0.239,-0.2397,0,0,0,0,0,-0.2251,-0.2271,-0.2274,-0.2282,-0.2316,-0.2346,-0.2349,-0.2346,-0.2334,-0.2343,-0.2334,-0.2311,-0.2318,-0.2302,-0.23,-0.2323,-0.2321,-0.2324,-0.2327,-0.2379,-0.2389,-0.2396,0,0,0,0,0,0,-0.2234,-0.2272,-0.2274,-0.2303,-0.2325,-0.2342,-0.2352,-0.2352,-0.2354,-0.2348,-0.2328,-0.2324,-0.2339,-0.2327,-0.231,-0.2348,-0.2317,-0.232,-0.2357,-0.2365,-0.2372,-0.2367,-0.2277,0,0,0,0,0,-0.2238,-0.2263,-0.2293,-0.2315,-0.2328,-0.2341,-0.2352,-0.2355,-0.2362,-0.2361,-0.2352,-0.2347,-0.2355,-0.2355,-0.2356,-0.2376,-0.2351,-0.2391,-0.2399,-0.2405,-0.2401,-0.2396,-0.2401,-0.234,-0.234,-0.234,0,0,-0.2235,-0.2261,-0.2273,-0.2313,-0.2327,-0.2357,-0.2344,-0.2367,-0.2388,-0.2358,-0.2375,-0.237,-0.2366,-0.2388,-0.2395,-0.2379,-0.241,-0.2409,-0.2414,-0.2407,-0.24,-0.2405,-0.241,-0.2342,-0.2342,-0.2342,0,0,-0.2248,-0.2269,-0.2294,-0.232,-0.2353,-0.2368,-0.2377,-0.2401,-0.2406,-0.243,-0.2415,-0.2426,-0.2432,-0.2437,-0.2441,-0.249,-0.2447,-0.2491,-0.2522,-0.2518,-0.2522,-0.2526,-0.2499,-0.25,-0.2495,-0.2495,-0.2495,0,-0.224,-0.228,-0.2304,-0.2339,-0.2361,-0.2376,-0.2406,-0.2425,-0.2445,-0.2453,-0.2441,-0.2461,-0.2459,-0.2488,-0.2507,-0.2506,-0.2483,-0.2489,-0.2526,-0.2529,-0.2531,-0.2503,-0.2503,-0.2498,-0.2498,-0.2498,-0.2497,0,-0.2273,-0.2307,-0.2325,-0.2375,-0.2404,-0.2432,-0.2467,-0.2487,-0.2495,-0.2507,-0.2531,-0.2532,-0.2538,-0.2551,-0.2544,-0.2571,-0.2541,-0.2534,-0.25,-0.2541,-0.2508,-0.2507,-0.2503,-0.2502,-0.2501,-0.25,0,0,-0.2243,-0.233,-0.2336,-0.2363,-0.2424,-0.2447,-0.2496,-0.2535,-0.2556,-0.2574,-0.2596,-0.2622,-0.2609,-0.2612,-0.2607,-0.261,-0.2617,-0.2582,-0.258,-0.2547,-0.2584,-0.25,-0.249,-0.261,-0.2611,-0.2611,-0.2552,0,-0.2254,-0.2322,-0.2366,-0.2421,-0.2454,-0.2494,-0.2536,-0.2575,-0.2599,-0.2624,-0.2634,-0.265,-0.2637,-0.2639,-0.2643,-0.2625,-0.2617,-0.2632,-0.2555,-0.2553,-0.2467,-0.2488,-0.2311,-0.2238,-0.2551,-0.255,-0.255,0,-0.2262,-0.231,-0.2365,-0.2443,-0.2461,-0.2496,-0.2554,-0.2593,-0.2642,-0.266,-0.2678,-0.2679,-0.2694,-0.2675,-0.2652,-0.2658,-0.2623,-0.2605,-0.2602,-0.25,-0.2467,-0.2249,-0.2224,-0.2548,-0.2548,-0.2548,-0.2548,0,-0.2213,-0.2304,-0.2344,-0.2371,-0.246,-0.2489,-0.2533,-0.2594,-0.2619,-0.2672,-0.2686,-0.2705,-0.2699,-0.268,-0.264,-0.2645,-0.2599,-0.2601,-0.2489,-0.2481,-0.2303,-0.2279,-0.2576,-0.2576,-0.2576,-0.2576,-0.2576,0,-0.2198,-0.2226,-0.2323,-0.2342,-0.237,-0.246,-0.2497,-0.2539,-0.2611,-0.2631,-0.2684,-0.2688,-0.2698,-0.2674,-0.2643,-0.2551,-0.2595,-0.2487,-0.2462,-0.2318,-0.2298,-0.2546,-0.2544,-0.2574,-0.2574,-0.2575,-0.2575,0,-0.2102,-0.2191,-0.2213,-0.2308,-0.234,-0.2344,-0.2447,-0.2483,-0.2563,-0.259,-0.2604,-0.2661,-0.2628,-0.2617,-0.2578,-0.2531,-0.2475,-0.2428,-0.2248,-0.2204,-0.2358,-0.236,-0.23,-0.2297,-0.2294,-0.2291,-0.2289,0,-0.2055,-0.2059,-0.2129,-0.2158,-0.2193,-0.2247,-0.2295,-0.2413,-0.2459,-0.2556,-0.2557,-0.2564,-0.253,-0.245,-0.2374,-0.2287,-0.2372,-0.2084,-0.207,-0.2348,-0.2331,-0.2337,-0.2342,-0.1854,-0.1848,-0.1844,-0.184,0,-0.1923,-0.1936,-0.1967,-0.2008,-0.2061,-0.2106,-0.2195,-0.2219,-0.2357,-0.2389,-0.2416,-0.2404,-0.2346,-0.2182,-0.209,-0.2021,-0.2091,-0.199,-0.2317,-0.1959,-0.1925,-0.1909,-0.1929,-0.1801,-0.1804,-0.1807,-0.181,-0.1811,-0.1793,-0.1768,-0.1818,-0.1841,-0.1913,-0.1949,-0.1937,-0.2046,-0.2072,-0.2085,-0.2189,-0.2105,-0.2104,-0.1853,-0.1763,-0.1685,-0.1822,-0.1747,-0.1762,-0.1781,-0.1748,-0.1712,-0.154,-0.1542,-0.1544,-0.1546,-0.1548,0,-0.1634,-0.1646,-0.1664,-0.1706,-0.1722,-0.1802,-0.1859,-0.1827,-0.1797,-0.1831,-0.1819,-0.1642,-0.1534,-0.1531,-0.1354,-0.133,-0.1325,-0.1275,-0.1277,-0.1316,-0.1351,-0.1298,-0.0969,-0.0967,-0.0966,-0.0964,0,0,-0.1555,-0.1524,-0.1535,-0.1505,-0.1541,-0.1494,-0.148,-0.1447,-0.1438,-0.1353,-0.1307,-0.1402,-0.1462,-0.1209,-0.1161,-0.1036,-0.1159,-0.0977,-0.1437,-0.1475,-0.1508,-0.1614,-0.1575,0,0,0,0,0]},{"header":{"parameterUnit":"m.s-1","parameterCategory":2,"la1":30.2991,"la2":30.254,"lo1":-89.0895,"lo2":-89.0444,"dy":0.0017,"dx":0.0017,"nx":28,"ny":28,"refTime":"2024-05-08T03:00:00:Z","depth":"2","parameterNumber":3,"parameterNumberName":"V-component_of_CURRENTS"},"data":[0,0,0,0,0,0,0,0,0,0,0,0,0,0,0,0,0,0,0,0,0,0,0,0,0,0,0,0,0,0,0,0,0,0,0,0,0,0,0,0,0,0,0,0,0,0,0,0,0,0,0,0,0,0,0,0,0,0,-0.0175,-0.0174,0,-0.009,-0.0089,-0.0088,-0.0029,-0.0029,-0.0028,-0.0028,0.0101,0.0104,0.0107,0,0,0,0,0,0,0,0,0,0,0,0,0,-0.023,-0.023,-0.0175,-0.0174,-0.0173,-0.009,-0.0089,-0.0088,-0.0029,-0.0029,-0.0028,-0.0028,0.01,0.0103,0.0107,0,0,0,0,0,0,0,0,0,0,0,0,0,-0.0181,-0.0229,-0.0175,-0.0135,-0.0131,-0.009,-0.0089,-0.0087,-0.0029,-0.0029,-0.0028,-0.0028,0.0098,0.0103,0.0108,0.0127,0,0,0.0122,0.0124,0,0,0,0,0,0,0,0,-0.0184,-0.0178,-0.0142,-0.0138,-0.0133,-0.0071,-0.0061,-0.0014,-0.0029,-0.0066,-0.0028,-0.0028,0.0046,0.0055,0.0071,0.0133,0.0139,0.0122,0.0125,0.0127,0.0129,0,0,0,0,0,0,0,-0.0187,-0.0181,-0.014,-0.0141,-0.0135,-0.0102,-0.0095,-0.0052,-0.0012,-0.0063,-0.0059,-0.0052,0.0049,0.0067,0.0075,0.0141,0.0122,0.0126,0.0129,0.0131,0.0237,0.0237,0,0,0,0,0,0,-0.0204,-0.0185,-0.0143,-0.0138,-0.0159,-0.0102,-0.0093,-0.009,-0.0013,-0.0002,-0.0052,-0.0049,0.0058,0.0069,0.008,0.011,0.0127,0.0132,0.0134,0.0237,0.0237,0.0237,0,0,0,0,0,0,-0.0205,-0.0201,-0.0146,-0.016,-0.0151,-0.0102,-0.0098,-0.0089,-0.0071,-0.0006,0.0007,-0.0045,0.0059,0.0073,0.0117,0.0115,0.0134,0.0138,0.0237,0.0237,0.0237,0.0168,0,0,0,0,0,0,-0.0207,-0.0202,-0.0208,-0.0162,-0.0151,-0.013,-0.0098,-0.0087,-0.0068,-0.0063,0.0005,0.0018,0.0061,0.0109,0.0121,0.0122,0.0142,0.0237,0.0237,0.0237,0.0171,0.0166,0.0162,0,0,0,0,0,-0.021,-0.0221,-0.0209,-0.0204,-0.016,-0.013,-0.0122,-0.0084,-0.0068,-0.0065,-0.0017,0.0016,0.0118,0.0113,0.0127,0.0129,0.0237,0.0237,0.0237,0.0173,0.0167,0.0162,0,0,0,0,0,0,-0.0248,-0.0215,-0.0201,-0.0201,-0.0172,-0.0121,-0.0116,-0.009,-0.005,-0.0045,0.0017,0.0033,0.0067,0.0109,0.0102,0.016,0.0182,0.0185,0.0128,0.0124,0.0119,0.0102,0.0146,0,0,0,0,0,-0.0261,-0.0262,-0.0221,-0.0223,-0.0211,-0.0165,-0.015,-0.0124,-0.0082,-0.0064,-0.0016,0.0036,0.0078,0.0108,0.0148,0.0185,0.0228,0.0195,0.0191,0.0187,0.0182,0.0251,0.0252,0.0237,0.0237,0.0237,0,0,-0.0278,-0.026,-0.0261,-0.0232,-0.0206,-0.0195,-0.0155,-0.0137,-0.0123,-0.0056,-0.0026,0.0018,0.0082,0.0117,0.0138,0.0154,0.0212,0.0187,0.0183,0.018,0.0251,0.0253,0.0254,0.0237,0.0237,0.0237,0,0,-0.0313,-0.0296,-0.0306,-0.0284,-0.0253,-0.0223,-0.0221,-0.0173,-0.0148,-0.0115,-0.0066,-0.002,0.0044,0.0094,0.0126,0.0125,0.018,0.0135,0.0109,0.0176,0.0178,0.018,0.0227,0.0234,0.0141,0.0141,0.0141,0,-0.0337,-0.034,-0.0305,-0.0305,-0.0293,-0.024,-0.0244,-0.021,-0.0154,-0.0132,-0.0116,-0.0016,0.0035,0.0091,0.0088,0.0116,0.0154,0.0122,0.017,0.0173,0.0176,0.0224,0.0233,0.0138,0.0138,0.0139,0.0139,0,-0.0374,-0.0373,-0.0378,-0.0361,-0.0343,-0.0338,-0.0289,-0.0267,-0.0233,-0.0192,-0.0138,-0.0066,-0.0002,0.0019,0.0053,0.0101,0.012,0.0148,0.0179,0.0174,0.0225,0.0235,0.0133,0.0134,0.0135,0.0136,0,0,-0.0435,-0.0411,-0.0412,-0.0413,-0.0372,-0.0363,-0.0341,-0.0301,-0.0284,-0.0224,-0.0192,-0.0115,-0.0071,-0.0032,0.0024,0.0081,0.0134,0.0116,0.0121,0.0156,0.0267,0.0297,0.0311,0.017,0.0172,0.0173,0.0289,0,-0.0476,-0.0495,-0.0465,-0.0477,-0.0482,-0.0427,-0.041,-0.0366,-0.0316,-0.0271,-0.0184,-0.0135,-0.009,-0.006,0.0004,0.0103,0.0159,0.0099,0.0274,0.0279,0.0301,0.0323,0.0281,0.0382,0.0299,0.0301,0.0302,0,-0.0524,-0.0528,-0.0554,-0.0534,-0.0531,-0.0527,-0.049,-0.0467,-0.0385,-0.0343,-0.027,-0.02,-0.0105,-0.0071,0.01,0.0059,0.015,0.0226,0.0233,0.0292,0.0328,0.0378,0.0404,0.032,0.0319,0.0317,0.0316,0,-0.0596,-0.0588,-0.0615,-0.061,-0.0581,-0.0578,-0.0557,-0.0492,-0.0471,-0.0386,-0.0354,-0.0232,-0.0167,-0.0034,0.0125,0.0115,0.031,0.0325,0.0438,0.0441,0.0455,0.0457,0.0441,0.0441,0.044,0.044,0.044,0,-0.0658,-0.0676,-0.0651,-0.067,-0.0699,-0.0643,-0.0647,-0.0613,-0.054,-0.0509,-0.0397,-0.0337,-0.0155,-0.0019,0.0118,0.0314,0.0316,0.0438,0.048,0.0429,0.0427,0.0414,0.0409,0.0444,0.0443,0.0443,0.0442,0,-0.075,-0.0725,-0.0768,-0.0751,-0.0742,-0.0772,-0.0725,-0.0717,-0.0636,-0.059,-0.0564,-0.0407,-0.0224,-0.0038,0.0188,0.0308,0.0489,0.0554,0.0473,0.0503,0.0572,0.0562,0.0692,0.0694,0.0696,0.0697,0.0699,0,-0.0798,-0.0828,-0.0859,-0.0883,-0.0882,-0.0885,-0.088,-0.0795,-0.0763,-0.0622,-0.0601,-0.0422,-0.0272,0.0066,0.03,0.0553,0.0545,0.0649,0.0629,0.0573,0.0601,0.0588,0.0577,0.0618,0.0618,0.0619,0.0619,0,-0.0902,-0.0924,-0.0965,-0.1018,-0.1032,-0.1041,-0.1006,-0.0989,-0.0867,-0.0779,-0.0628,-0.0494,-0.0169,0.0111,0.0421,0.0554,0.0605,0.0666,0.0654,0.0557,0.0513,0.0537,0.0526,0.0623,0.0623,0.0622,0.0622,0.0622,-0.099,-0.1049,-0.1098,-0.1146,-0.1172,-0.1179,-0.1174,-0.1091,-0.1013,-0.084,-0.0674,-0.0421,-0.0164,0.0292,0.0508,0.0694,0.0688,0.0727,0.0722,0.0717,0.0684,0.0646,0.0774,0.0774,0.0775,0.0775,0.0775,0,-0.1074,-0.1123,-0.1198,-0.1254,-0.1303,-0.1278,-0.1242,-0.1199,-0.1093,-0.0867,-0.0663,-0.0323,0.0014,0.028,0.0594,0.078,0.0749,0.0786,0.0711,0.0706,0.0702,0.0665,0.0751,0.0752,0.0752,0.0753,0,0,-0.1122,-0.1201,-0.1233,-0.1334,-0.1373,-0.1392,-0.1371,-0.1282,-0.1123,-0.089,-0.064,-0.0326,0.0017,0.024,0.0458,0.0616,0.0601,0.0614,0.0609,0.0485,0.0479,0.0641,0.0575,0,0,0,0,0]}],[{"header":{"parameterUnit":"m.s-1","parameterCategory":2,"la1":30.2991,"la2":30.254,"lo1":-89.0895,"lo2":-89.0444,"dy":0.0017,"dx":0.0017,"nx":28,"ny":28,"refTime":"2024-05-08T03:00:00:Z","depth":"4","parameterNumber":2,"parameterNumberName":"U-component_of_CURRENTS"},"data":[0,0,0,0,0,0,0,0,0,0,0,0,0,0,0,0,0,0,0,0,0,0,0,0,0,0,0,0,0,0,0,0,0,0,0,0,0,0,0,0,0,0,0,0,0,0,0,0,0,0,0,0,0,0,0,0,0,0,-0.1664,-0.1665,0,-0.1737,-0.1738,-0.1739,-0.1778,-0.1779,-0.1779,-0.1779,-0.1837,-0.1838,-0.1839,0,0,0,0,0,0,0,0,0,0,0,0,0,-0.1569,-0.1571,-0.1664,-0.1665,-0.1666,-0.1737,-0.1738,-0.1739,-0.1778,-0.1779,-0.1779,-0.1779,-0.1836,-0.1838,-0.1839,0,0,0,0,0,0,0,0,0,0,0,0,0,-0.1622,-0.1571,-0.1664,-0.1695,-0.1699,-0.1737,-0.1738,-0.1739,-0.1778,-0.1779,-0.1779,-0.1779,-0.1836,-0.1838,-0.184,-0.1845,0,0,-0.1846,-0.1847,0,0,0,0,0,0,0,0,-0.1619,-0.1625,-0.169,-0.1693,-0.1697,-0.175,-0.1726,-0.1774,-0.1778,-0.1747,-0.1779,-0.1779,-0.1807,-0.1811,-0.1823,-0.1848,-0.185,-0.1846,-0.1847,-0.1848,-0.1848,0,0,0,0,0,0,0,-0.1615,-0.1622,-0.1691,-0.1691,-0.1695,-0.171,-0.1718,-0.1736,-0.1773,-0.1749,-0.1753,-0.1763,-0.1809,-0.1821,-0.1824,-0.1851,-0.1846,-0.1848,-0.1849,-0.185,-0.1956,-0.1958,0,0,0,0,0,0,-0.1608,-0.1619,-0.1689,-0.1694,-0.166,-0.1711,-0.172,-0.1732,-0.1773,-0.178,-0.1763,-0.1765,-0.1817,-0.1822,-0.1826,-0.1904,-0.1848,-0.185,-0.1851,-0.1955,-0.1957,-0.1958,0,0,0,0,0,0,-0.1606,-0.1614,-0.1686,-0.1659,-0.1669,-0.1713,-0.1726,-0.1733,-0.1773,-0.1784,-0.179,-0.1798,-0.1818,-0.1824,-0.1872,-0.1904,-0.1851,-0.1852,-0.1953,-0.1955,-0.1957,-0.2015,0,0,0,0,0,0,-0.1603,-0.1613,-0.1633,-0.1659,-0.1671,-0.1728,-0.1726,-0.1734,-0.1777,-0.1781,-0.1815,-0.1819,-0.1818,-0.1869,-0.1874,-0.1906,-0.1854,-0.1951,-0.1954,-0.1957,-0.2011,-0.202,-0.2026,0,0,0,0,0,-0.1599,-0.1622,-0.1634,-0.1643,-0.1693,-0.1729,-0.1737,-0.1767,-0.1779,-0.1803,-0.183,-0.182,-0.1891,-0.1872,-0.1877,-0.1911,-0.1949,-0.1953,-0.1956,-0.2008,-0.2018,-0.2026,0,0,0,0,0,0,-0.1596,-0.1629,-0.1642,-0.1676,-0.171,-0.1737,-0.1767,-0.1785,-0.1825,-0.1837,-0.1843,-0.185,-0.1902,-0.1901,-0.1879,-0.1951,-0.1918,-0.1923,-0.1955,-0.1965,-0.1972,-0.1958,-0.1856,0,0,0,0,0,-0.1603,-0.1629,-0.1661,-0.1693,-0.1711,-0.1744,-0.1769,-0.1791,-0.1822,-0.1842,-0.1866,-0.1892,-0.1917,-0.1937,-0.1956,-0.1999,-0.1974,-0.2024,-0.2031,-0.2038,-0.203,-0.2027,-0.2033,-0.197,-0.197,-0.197,0,0,-0.1612,-0.1634,-0.1651,-0.1694,-0.1723,-0.1758,-0.1761,-0.1808,-0.1844,-0.1841,-0.1906,-0.1921,-0.1934,-0.1981,-0.2004,-0.1988,-0.2044,-0.2042,-0.2048,-0.2036,-0.2031,-0.2037,-0.2042,-0.1973,-0.1973,-0.1972,0,0,-0.1632,-0.1663,-0.1689,-0.1719,-0.1768,-0.1789,-0.1809,-0.1855,-0.1886,-0.1943,-0.1948,-0.1986,-0.2031,-0.2044,-0.2054,-0.2116,-0.2082,-0.2128,-0.2158,-0.2156,-0.216,-0.2164,-0.214,-0.2141,-0.2134,-0.2134,-0.2134,0,-0.1644,-0.1678,-0.1704,-0.1737,-0.1769,-0.1806,-0.1843,-0.188,-0.1939,-0.1963,-0.1974,-0.2039,-0.2058,-0.2097,-0.2123,-0.2133,-0.2115,-0.2122,-0.2163,-0.2167,-0.2169,-0.2144,-0.2145,-0.2137,-0.2137,-0.2136,-0.2136,0,-0.1672,-0.1714,-0.1736,-0.1787,-0.1823,-0.1866,-0.1912,-0.1959,-0.2,-0.2028,-0.2088,-0.2113,-0.2144,-0.2165,-0.2167,-0.2201,-0.2177,-0.217,-0.2135,-0.2178,-0.215,-0.2149,-0.2142,-0.2141,-0.214,-0.2139,0,0,-0.1657,-0.1739,-0.175,-0.1784,-0.1855,-0.1885,-0.1951,-0.2008,-0.2046,-0.2105,-0.2146,-0.22,-0.2207,-0.2218,-0.2226,-0.2233,-0.2248,-0.2216,-0.2214,-0.2183,-0.2225,-0.2081,-0.2066,-0.2247,-0.2248,-0.2248,-0.2197,0,-0.1675,-0.1738,-0.1779,-0.1851,-0.1884,-0.1942,-0.1995,-0.2054,-0.2102,-0.2152,-0.2183,-0.2226,-0.2229,-0.225,-0.2259,-0.2252,-0.2248,-0.2261,-0.2196,-0.2193,-0.2052,-0.2062,-0.2249,-0.2196,-0.2196,-0.2196,-0.2196,0,-0.1678,-0.1723,-0.1786,-0.1876,-0.1898,-0.1951,-0.2031,-0.2084,-0.2153,-0.219,-0.223,-0.225,-0.2282,-0.2276,-0.2271,-0.2278,-0.2255,-0.2242,-0.2239,-0.2079,-0.2047,-0.2145,-0.2194,-0.2194,-0.2194,-0.2194,-0.2194,0,-0.1623,-0.1727,-0.1776,-0.1807,-0.1908,-0.1957,-0.202,-0.2096,-0.2136,-0.221,-0.2233,-0.2273,-0.2289,-0.228,-0.2261,-0.2269,-0.2232,-0.2238,-0.2081,-0.207,-0.219,-0.2187,-0.2219,-0.2219,-0.2219,-0.2219,-0.2219,0,-0.1595,-0.1642,-0.1763,-0.1785,-0.1845,-0.1939,-0.2004,-0.2063,-0.2149,-0.2176,-0.2245,-0.2247,-0.2291,-0.2277,-0.2259,-0.2151,-0.2227,-0.207,-0.2043,-0.2217,-0.2217,-0.2189,-0.2186,-0.2217,-0.2218,-0.2218,-0.2218,0,-0.1493,-0.1587,-0.1639,-0.1765,-0.1811,-0.1847,-0.1982,-0.2025,-0.2116,-0.2151,-0.2175,-0.223,-0.2199,-0.2211,-0.2187,-0.2121,-0.2058,-0.2002,-0.2172,-0.2159,-0.1898,-0.19,-0.1813,-0.1807,-0.1803,-0.1799,-0.1795,0,-0.1441,-0.1455,-0.1582,-0.1627,-0.1687,-0.1778,-0.1839,-0.1975,-0.2018,-0.211,-0.2106,-0.2121,-0.2133,-0.1966,-0.2009,-0.1939,-0.1921,-0.188,-0.1898,-0.1871,-0.1855,-0.1864,-0.1872,-0.1788,-0.1786,-0.1785,-0.1784,0,-0.1316,-0.1367,-0.1416,-0.1494,-0.1577,-0.1646,-0.1755,-0.1767,-0.1906,-0.2011,-0.1966,-0.1934,-0.1887,-0.1852,-0.1805,-0.1766,-0.1906,-0.183,-0.184,-0.1857,-0.184,-0.1831,-0.1844,-0.1768,-0.177,-0.1771,-0.1772,0,-0.1221,-0.1217,-0.1294,-0.1347,-0.1446,-0.1487,-0.1564,-0.1625,-0.1677,-0.1804,-0.1778,-0.1795,-0.1859,-0.1759,-0.1722,-0.1664,-0.1642,-0.1599,-0.162,-0.1639,-0.1606,-0.1561,-0.1362,0,0,0,0,0,-0.1119,-0.1112,-0.1152,-0.1216,-0.1308,-0.1357,-0.1496,-0.1584,-0.1718,-0.1637,-0.1707,-0.1657,-0.1586,-0.16,-0.1498,-0.1641,-0.1651,-0.1519,-0.1615,-0.1676,-0.1695,-0.1673,0,0,0,0,0,0,-0.1058,-0.1087,-0.1097,-0.1093,-0.1109,-0.1194,-0.1268,-0.1371,-0.1345,-0.1478,-0.1439,-0.1543,-0.1491,-0.1594,-0.1451,-0.1458,-0.1483,-0.1551,-0.1547,-0.1665,-0.1683,-0.1698,-0.1682,0,0,0,0,0]},{"header":{"parameterUnit":"m.s-1","parameterCategory":2,"la1":30.2991,"la2":30.254,"lo1":-89.0895,"lo2":-89.0444,"dy":0.0017,"dx":0.0017,"nx":28,"ny":28,"refTime":"2024-05-08T03:00:00:Z","depth":"4","parameterNumber":3,"parameterNumberName":"V-component_of_CURRENTS"},"data":[0,0,0,0,0,0,0,0,0,0,0,0,0,0,0,0,0,0,0,0,0,0,0,0,0,0,0,0,0,0,0,0,0,0,0,0,0,0,0,0,0,0,0,0,0,0,0,0,0,0,0,0,0,0,0,0,0,0,-0.0106,-0.0105,0,-0.0043,-0.0042,-0.0041,-0.0,-0.0,-0.0,-0.0,0.0111,0.0114,0.0117,0,0,0,0,0,0,0,0,0,0,0,0,0,-0.0146,-0.0146,-0.0106,-0.0105,-0.0105,-0.0043,-0.0042,-0.0041,-0.0001,-0.0,-0.0,-0.0,0.011,0.0113,0.0117,0,0,0,0,0,0,0,0,0,0,0,0,0,-0.0109,-0.0146,-0.0106,-0.0078,-0.0075,-0.0043,-0.0042,-0.0041,-0.0001,-0.0,-0.0,-0.0,0.0109,0.0113,0.0117,0.0141,0,0,0.013,0.0132,0,0,0,0,0,0,0,0,-0.0111,-0.0108,-0.0083,-0.008,-0.0077,-0.0031,-0.0016,0.0022,-0.0001,-0.0027,-0.0,-0.0,0.0067,0.0075,0.0088,0.0146,0.0151,0.0131,0.0133,0.0135,0.0136,0,0,0,0,0,0,0,-0.0114,-0.011,-0.0079,-0.0082,-0.0078,-0.0054,-0.0048,-0.0008,0.002,-0.0025,-0.0022,-0.0018,0.0069,0.0083,0.0091,0.0152,0.0131,0.0134,0.0137,0.0139,0.0233,0.0233,0,0,0,0,0,0,-0.0128,-0.0113,-0.0081,-0.0078,-0.0096,-0.0053,-0.0047,-0.0044,0.0019,0.0028,-0.0018,-0.0016,0.0076,0.0086,0.0095,0.0117,0.0135,0.0139,0.0142,0.0233,0.0233,0.0233,0,0,0,0,0,0,-0.0129,-0.0125,-0.0084,-0.0095,-0.0088,-0.0053,-0.005,-0.0043,-0.0031,0.0023,0.0034,-0.0013,0.0076,0.0089,0.0128,0.0122,0.0141,0.0145,0.0233,0.0233,0.0233,0.0168,0,0,0,0,0,0,-0.013,-0.0126,-0.0131,-0.0096,-0.0088,-0.0071,-0.005,-0.0042,-0.0029,-0.0026,0.0031,0.0042,0.0078,0.0121,0.0132,0.0128,0.0148,0.0234,0.0233,0.0233,0.017,0.0165,0.0161,0,0,0,0,0,-0.0132,-0.0139,-0.0132,-0.0128,-0.0095,-0.0071,-0.0065,-0.0038,-0.0029,-0.0026,0.0013,0.004,0.0128,0.0125,0.0137,0.0135,0.0234,0.0233,0.0233,0.0172,0.0166,0.0162,0,0,0,0,0,0,-0.0159,-0.0134,-0.0126,-0.0125,-0.0104,-0.0065,-0.0062,-0.0043,-0.001,-0.0008,0.0044,0.0057,0.0085,0.0122,0.0117,0.0162,0.0184,0.0186,0.0133,0.0128,0.0124,0.0107,0.0152,0,0,0,0,0,-0.0168,-0.0168,-0.0138,-0.014,-0.0131,-0.0098,-0.0087,-0.0069,-0.0035,-0.0021,0.0018,0.0061,0.0095,0.012,0.0155,0.0186,0.022,0.0192,0.0188,0.0184,0.0179,0.0226,0.0226,0.0233,0.0233,0.0233,0,0,-0.0181,-0.0167,-0.0168,-0.0146,-0.0128,-0.0121,-0.0091,-0.0077,-0.007,-0.0013,0.0009,0.0045,0.0098,0.0126,0.0143,0.0158,0.0199,0.0184,0.018,0.0178,0.0226,0.0225,0.0225,0.0233,0.0233,0.0233,0,0,-0.0206,-0.0193,-0.0202,-0.0185,-0.0164,-0.0142,-0.0141,-0.0105,-0.0089,-0.0062,-0.0024,0.001,0.0067,0.0102,0.0128,0.0125,0.0169,0.0134,0.0108,0.0153,0.0152,0.0153,0.0188,0.0191,0.0139,0.0139,0.0139,0,-0.0225,-0.0229,-0.0201,-0.0201,-0.0195,-0.0156,-0.0162,-0.0137,-0.0093,-0.0081,-0.0065,0.0011,0.0055,0.0092,0.0088,0.0114,0.0144,0.012,0.0146,0.0147,0.0148,0.0185,0.019,0.0135,0.0136,0.0136,0.0136,0,-0.0252,-0.0256,-0.0259,-0.025,-0.0237,-0.0236,-0.02,-0.0185,-0.0162,-0.0133,-0.0097,-0.0037,0.0009,0.0027,0.0058,0.0086,0.0105,0.0129,0.0155,0.0144,0.0183,0.0189,0.0131,0.0132,0.0133,0.0134,0,0,-0.0298,-0.0284,-0.0287,-0.0294,-0.0264,-0.026,-0.0247,-0.0225,-0.0219,-0.0171,-0.0157,-0.0095,-0.0062,-0.0031,0.0016,0.0057,0.009,0.0092,0.0095,0.0118,0.0183,0.0175,0.0182,0.0118,0.0119,0.0119,0.0204,0,-0.0334,-0.0356,-0.0332,-0.0352,-0.0361,-0.0321,-0.0313,-0.0284,-0.025,-0.0223,-0.0159,-0.0126,-0.0083,-0.0062,-0.0015,0.0066,0.0105,0.0065,0.0198,0.0201,0.019,0.0188,0.0122,0.0209,0.021,0.0211,0.0212,0,-0.0373,-0.0383,-0.0416,-0.0411,-0.041,-0.0413,-0.0397,-0.0382,-0.0328,-0.0297,-0.0247,-0.0192,-0.0125,-0.0089,0.004,0.0012,0.0086,0.0148,0.0154,0.0174,0.0206,0.0227,0.0224,0.0223,0.0222,0.0222,0.0221,0,-0.0436,-0.0441,-0.0476,-0.0475,-0.0462,-0.0469,-0.0457,-0.0413,-0.04,-0.0345,-0.0323,-0.0235,-0.0186,-0.0084,0.0049,0.0045,0.0191,0.0207,0.0269,0.027,0.028,0.028,0.0291,0.029,0.029,0.029,0.029,0,-0.0486,-0.0513,-0.0512,-0.0534,-0.0574,-0.0531,-0.055,-0.0524,-0.0473,-0.0454,-0.0369,-0.0325,-0.0181,-0.0076,0.0036,0.0173,0.0187,0.0261,0.0292,0.025,0.0245,0.0285,0.0283,0.0293,0.0292,0.0292,0.0291,0,-0.0555,-0.0551,-0.06,-0.0606,-0.0611,-0.0643,-0.0621,-0.0619,-0.0561,-0.0531,-0.0514,-0.0388,-0.025,-0.0102,0.0074,0.0155,0.0288,0.0333,0.0273,0.0299,0.0337,0.0331,0.0401,0.0401,0.0402,0.0402,0.0402,0,-0.0589,-0.0623,-0.0675,-0.0708,-0.0717,-0.0739,-0.0746,-0.0688,-0.0664,-0.0561,-0.0543,-0.0411,-0.0315,-0.007,0.0079,0.0283,0.0312,0.0374,0.0354,0.0326,0.0349,0.0342,0.0336,0.0403,0.0403,0.0403,0.0403,0,-0.0658,-0.0688,-0.0726,-0.0799,-0.083,-0.0856,-0.0845,-0.0829,-0.0739,-0.0688,-0.0553,-0.0412,-0.0258,-0.0073,0.0087,0.0235,0.0329,0.0378,0.0378,0.036,0.033,0.035,0.0343,0.0405,0.0404,0.0404,0.0404,0,-0.071,-0.0757,-0.0809,-0.0866,-0.0921,-0.0943,-0.0931,-0.0858,-0.0814,-0.0664,-0.0622,-0.0432,-0.0311,-0.0096,0.0055,0.0194,0.0223,0.0261,0.0267,0.0268,0.0202,0.0142,0.0183,0,0,0,0,0,-0.0744,-0.0785,-0.0856,-0.0916,-0.0976,-0.0996,-0.0977,-0.0936,-0.0838,-0.0749,-0.0671,-0.0516,-0.0267,-0.0155,-0.0019,0.0031,0.0219,0.0192,0.0258,0.0412,0.041,0.0355,0,0,0,0,0,0,-0.0764,-0.0831,-0.0861,-0.0942,-0.0987,-0.1034,-0.1024,-0.0961,-0.0881,-0.0767,-0.0633,-0.0505,-0.0272,-0.0356,-0.0028,0.0018,0.0075,0.0325,0.0327,0.0413,0.0411,0.041,0.0353,0,0,0,0,0]}]]